Flag for Russia Weather past 2 weeks in Ulyanovsk, Russia

32 °F


Feels Like: 21 °F
Forecast: 31 / 37 °F
Wind: 17 mph from West

Location: Ulyanovsk

Current Time: Oct 8, 2015 at 11:40:32 PM

Latest Report: Oct 8, 2015 at 11:00 PM

Visibility: 5 mi

Pressure: 29.71 "Hg

Humidity: 75%

Dew point: 25 °F

Location of UlyanovskLocation

Historic Weather in Ulyanovsk — Graph


Ulyanovsk temperature yesterday

Maximum temperature yesterday: 37 °F (at 4:00 AM)
Minimum temperature yesterday: 36 °F (at 12:00 AM)
Average temperature yesterday: 36 °F

Past Weeks' High & Low Weather Summary

High86 °F (Sep 24, 2:00 PM)100% (Sep 26, 3:00 AM)30.30 "Hg (Sep 26, 3:00 AM)
Low32 °F (Oct 8, 5:00 AM)21% (Sep 29, 1:00 PM)29.30 "Hg (Oct 3, 10:00 AM)
Average54 °F65%30.03 "Hg
* Reported Sep 23 10:00 PM — Oct 8 10:00 PM, Ulyanovsk, Weather by CustomWeather, © 2015

Note: Actual official high and low records may vary slightly from our data, if they occured in-between our weather recording intervals... More about our weather records


Ulyanovsk weather history for previous 24 hours

Time TempWeatherWind HumidityBarometerVisibility
10:00 PM
Thu, Oct 8
34 °FPassing clouds.13 mph70%29.71 "Hg5 mi
9:00 PM34 °FPassing clouds.17 mph60%29.71 "Hg5 mi
8:00 PM34 °FPassing clouds.17 mph60%29.71 "Hg5 mi
7:00 PM36 °FPassing clouds.22 mph56%29.71 "Hg5 mi
6:00 PM36 °FOvercast.26 mph52%29.71 "Hg5 mi
5:00 PM36 °FOvercast.26 mph48%29.71 "Hg5 mi
4:00 PM36 °FOvercast.26 mph56%29.68 "Hg5 mi
3:00 PM36 °FPartly sunny.24 mph56%29.68 "Hg5 mi
2:00 PM36 °FSnow flurries. Overcast.29 mph60%29.65 "Hg5 mi
1:00 PM34 °FSnow flurries. Overcast.24 mph70%29.62 "Hg5 mi
12:00 PM32 °FSnow flurries. Overcast.24 mph80%29.62 "Hg2 mi
11:00 AM32 °FSnow flurries. Overcast.26 mph75%29.62 "Hg2 mi
10:00 AM32 °FOvercast.24 mph64%29.62 "Hg5 mi
9:00 AM32 °FOvercast.26 mph64%29.65 "Hg5 mi
8:00 AM32 °FOvercast.22 mph69%29.65 "Hg5 mi
7:00 AM32 °FPartly sunny.20 mph75%29.68 "Hg5 mi
6:00 AM32 °FPassing clouds.20 mph75%29.68 "Hg5 mi
5:00 AM32 °FPassing clouds.20 mph75%29.68 "Hg5 mi
4:00 AM34 °FPassing clouds.17 mph70%29.68 "Hg5 mi
3:00 AM34 °FPassing clouds.20 mph75%29.71 "Hg5 mi
2:00 AM34 °FSnow flurries. Passing clouds.20 mph81%29.71 "Hg3 mi
1:00 AM34 °FPassing clouds.17 mph75%29.74 "Hg5 mi
12:00 AM36 °FPassing clouds.15 mph75%29.74 "Hg5 mi
11:00 PM
Wed, Oct 7
36 °FPassing clouds.15 mph75%29.74 "Hg5 mi
Weather by CustomWeather, © 2015

See weather overviewHow to use our weather pages